Location: Monteux
(44.0348°N, 4.9972°E)
Time: 11:14:45
(UTC+00:00)

Meteor 1-4 Rocket - Visible Passes

Search period start: 17 April 2021 00:00
Search period end: 27 April 2021 00:00
Orbit: 447 x 500 km, 81.2° (Epoch: 16 April)

Date Brightness Start Highest point End Pass type
(mag) Time Alt. Az. Time Alt. Az. Time Alt. Az.
17 Apr 5.2 21:38:30 15° N 21:38:30 15° N 21:39:09 10° N visible
18 Apr 5.0 21:10:11 15° NNE 21:10:11 15° NNE 21:10:55 10° NNE visible
19 Apr 4.9 20:41:50 13° NE 20:41:50 13° NE 20:42:26 10° NE visible
19 Apr 5.5 22:15:56 15° NW 22:15:56 15° NW 22:17:01 10° NNW visible
20 Apr 5.0 20:13:26 11° NE 20:13:26 11° NE 20:13:36 10° NE visible
20 Apr 4.8 21:47:32 23° NW 21:47:32 23° NW 21:49:23 10° N visible
21 Apr 3.9 21:19:04 37° NNW 21:19:04 37° NNW 21:21:29 10° N visible
22 Apr 2.9 20:50:32 55° NNE 20:50:32 55° NNE 20:53:24 10° NNE visible
23 Apr 2.9 20:21:56 41° E 20:21:56 41° E 20:25:07 10° NNE visible
23 Apr 5.5 21:56:01 11° W 21:57:01 12° WNW 21:58:29 10° NW visible
24 Apr 3.6 19:53:14 23° ESE 19:53:44 24° E 19:56:37 10° NE visible
24 Apr 4.9 21:27:20 16° W 21:28:41 20° WNW 21:31:22 10° NNW visible
25 Apr 4.3 19:24:26 12° ESE 19:25:45 14° E 19:27:41 10° NE visible
25 Apr 4.1 20:58:31 19° SW 21:00:24 33° WNW 21:03:40 10° N visible
26 Apr 2.9 20:29:35 16° SSW 20:32:12 60° WNW 20:35:44 10° N visible
